TimeCST,TemperatureF,Dew PointF,Humidity,Sea Level PressureIn,VisibilityMPH,Wind Direction,Wind SpeedMPH,Gust SpeedMPH,PrecipitationIn,Events,Conditions,WindDirDegrees,DateUTC
12:06 AM,-5.8,-14.8,65,30.11,10.0,Variable,3.5,-,N/A,,Mostly Cloudy,0,2013-02-01 06:06:00
12:14 AM,-7.6,-14.8,71,30.11,10.0,West,3.5,-,N/A,,Scattered Clouds,270,2013-02-01 06:14:00
12:53 AM,-8.0,-16.1,68,30.23,10.0,Variable,6.9,-,N/A,,Clear,0,2013-02-01 06:53:00
1:53 AM,-9.9,-18.0,68,30.25,10.0,Variable,3.5,-,N/A,,Clear,0,2013-02-01 07:53:00
2:53 AM,-11.9,-18.9,71,30.26,10.0,Variable,4.6,-,N/A,,Clear,0,2013-02-01 08:53:00
3:53 AM,-14.1,-20.9,71,30.28,10.0,West,4.6,-,N/A,,Clear,260,2013-02-01 09:53:00
4:53 AM,-15.0,-22.0,71,30.29,10.0,Calm,Calm,-,N/A,,Clear,0,2013-02-01 10:53:00
6:53 AM,-18.0,-24.0,74,30.31,10.0,Calm,Calm,-,N/A,,Clear,0,2013-02-01 12:53:00
7:53 AM,-18.0,-24.0,74,30.32,10.0,Calm,Calm,-,N/A,,Clear,0,2013-02-01 13:53:00
8:53 AM,-16.1,-23.1,71,30.32,10.0,Variable,4.6,-,N/A,,Clear,0,2013-02-01 14:53:00
9:53 AM,-13.0,-22.0,64,30.31,10.0,WSW,4.6,-,N/A,,Clear,250,2013-02-01 15:53:00
10:53 AM,-11.0,-20.9,62,30.29,10.0,Variable,3.5,-,N/A,,Clear,0,2013-02-01 16:53:00
11:53 AM,-7.1,-20.0,53,30.27,10.0,WSW,5.8,-,N/A,,Clear,250,2013-02-01 17:53:00
12:53 PM,-5.1,-18.9,51,30.25,10.0,Variable,5.8,-,N/A,,Clear,0,2013-02-01 18:53:00
2:53 PM,-2.0,-17.0,49,30.21,10.0,SW,3.5,-,N/A,,Scattered Clouds,230,2013-02-01 20:53:00
3:53 PM,-2.0,-17.0,49,30.20,10.0,Variable,3.5,-,N/A,,Mostly Cloudy,0,2013-02-01 21:53:00
4:53 PM,-0.9,-17.0,47,30.19,10.0,Variable,4.6,-,N/A,,Overcast,0,2013-02-01 22:53:00
5:53 PM,-2.0,-15.0,54,30.19,10.0,SSW,3.5,-,N/A,,Overcast,200,2013-02-01 23:53:00
6:53 PM,-2.9,-16.1,54,30.20,10.0,South,5.8,-,N/A,,Overcast,190,2013-02-02 00:53:00
7:53 PM,-2.9,-15.0,56,30.19,10.0,SSW,3.5,-,N/A,,Overcast,200,2013-02-02 01:53:00
8:53 PM,-2.9,-13.0,62,30.19,10.0,SSW,4.6,-,N/A,,Overcast,200,2013-02-02 02:53:00
9:53 PM,-2.9,-11.0,68,30.18,4.0,Calm,Calm,-,0.00,Snow,Light Snow,0,2013-02-02 03:53:00
10:53 PM,-2.9,-9.9,72,30.17,6.0,Calm,Calm,-,0.00,Snow,Light Snow,0,2013-02-02 04:53:00
11:53 PM,-2.0,-9.9,69,30.16,5.0,Calm,Calm,-,0.00,Snow,Light Snow,0,2013-02-02 05:53:00